Weather History for KMRJ - September, 2012

Change the Weather History Date:

Monday, September 17, 2012

  Actual Average (KLNR) Record (KLNR)
Temperature  
Mean Temperature 57 °F -  
Max Temperature 68 °F 70 °F 84 °F (2007)
Min Temperature 46 °F 48 °F 37 °F (2011)
Degree Days  
Heating Degree Days 8    
Growing Degree Days 7 (Base 50)    
Moisture  
Dew Point 50 °F    
Average Humidity 75    
Maximum Humidity 93    
Minimum Humidity 52    
Precipitation  
Precipitation 0.00 in - - ()
Sea Level Pressure  
Sea Level Pressure 29.89 in    
Wind  
Wind Speed 6 mph (WNW)    
Max Wind Speed 20 mph    
Max Gust Speed 26 mph    
Visibility 10 miles    
Events      
Averages and records for this station are not official NWS values.
T = Trace of Precipitation, MM = Missing Value Source: NWS Daily Summary

Daily Weather History Graph

Daily Weather History Graph

Search for Another Location

Airport or City:

Trip Planner

Search our weather history database for the weather conditions in past years. The results will help you decide how hot, cold, wet, or windy it might be!

Date:

Astronomy

Sep. 17, 2012 Rise Set
Actual Time 6:43 AM CDT 7:06 PM CDT
Civil Twilight 6:14 AM CDT 7:34 PM CDT
Nautical Twilight 5:41 AM CDT 8:07 PM CDT
Astronomical Twilight 5:07 AM CDT 8:42 PM CDT
Moon 8:36 AM CDT (9/17) 7:43 PM CDT (9/17)
Length of Visible Light 13h 19m
Length of Day
12h 22m
Waxing Crescent, 3% of the Moon is Illuminated
Sep 17
Waxing Crescent
Sep 22
First Quarter
Sep 29
Full
Oct 8
Last Quarter
Oct 15
New

Hourly Weather History & Observations

Time (CDT) Temp. Windchill Dew Point Humidity Pressure Visibility Wind Dir Wind Speed Gust Speed Precip Events Conditions
12:15 AM 59.0 °F - 46.4 °F 63% 29.95 in 10.0 mi South 6.9 mph - N/A   Clear
12:35 AM 59.0 °F - 46.4 °F 63% 29.94 in 10.0 mi South 6.9 mph - N/A   Clear
12:55 AM 59.0 °F - 46.4 °F 63% 29.94 in 10.0 mi SSW 6.9 mph - N/A   Clear
1:15 AM 59.0 °F - 46.4 °F 63% 29.94 in 10.0 mi SSW 5.8 mph - N/A   Clear
1:35 AM 59.0 °F - 46.4 °F 63% 29.94 in 10.0 mi SSW 5.8 mph - N/A   Clear
1:55 AM 59.0 °F - 46.4 °F 63% 29.94 in 10.0 mi SSW 5.8 mph - N/A   Clear
2:15 AM 59.0 °F - 48.2 °F 67% 29.92 in 10.0 mi SSW 5.8 mph - N/A   Clear
2:35 AM 57.2 °F - 48.2 °F 72% 29.92 in 10.0 mi South 4.6 mph - N/A   Clear
2:55 AM 57.2 °F - 48.2 °F 72% 29.91 in 10.0 mi South 4.6 mph - N/A   Clear
3:15 AM 57.2 °F - 50.0 °F 77% 29.90 in 10.0 mi South 5.8 mph - N/A   Clear
3:35 AM 57.2 °F - 50.0 °F 77% 29.90 in 10.0 mi South 5.8 mph - N/A   Clear
3:55 AM 55.4 °F - 50.0 °F 82% 29.90 in 10.0 mi South 4.6 mph - N/A   Clear
4:15 AM 55.4 °F - 50.0 °F 82% 29.90 in 10.0 mi South 5.8 mph - N/A   Clear
4:55 AM 55.4 °F - 50.0 °F 82% 29.89 in 10.0 mi South 5.8 mph - N/A   Mostly Cloudy
5:15 AM 55.4 °F - 50.0 °F 82% 29.90 in 10.0 mi SW 3.5 mph - N/A   Overcast
5:35 AM 57.2 °F - 51.8 °F 82% 29.89 in 10.0 mi SSW 4.6 mph - N/A   Overcast
5:55 AM 57.2 °F - 51.8 °F 82% 29.89 in 10.0 mi South 4.6 mph - N/A   Mostly Cloudy
6:15 AM 55.4 °F - 51.8 °F 88% 29.90 in 10.0 mi Calm Calm - N/A   Overcast
6:35 AM 57.2 °F - 51.8 °F 82% 29.90 in 10.0 mi Calm Calm - N/A   Overcast
6:55 AM 57.2 °F - 51.8 °F 82% 29.90 in 10.0 mi SSW 3.5 mph - N/A   Overcast
7:15 AM 57.2 °F - 53.6 °F 88% 29.91 in 10.0 mi Calm Calm - N/A   Overcast
7:35 AM 59.0 °F - 53.6 °F 82% 29.90 in 10.0 mi Calm Calm - N/A   Overcast
8:15 AM 60.8 °F - 55.4 °F 82% 29.90 in 7.0 mi SW 4.6 mph - N/A   Overcast
8:35 AM 62.6 °F - 57.2 °F 82% 29.89 in 10.0 mi West 3.5 mph - N/A   Overcast
8:55 AM 62.6 °F - 57.2 °F 82% 29.88 in 10.0 mi WSW 3.5 mph - N/A   Mostly Cloudy
9:15 AM 62.6 °F - 57.2 °F 82% 29.89 in 10.0 mi West 5.8 mph - N/A   Mostly Cloudy
9:35 AM 62.6 °F - 57.2 °F 82% 29.88 in 10.0 mi West 4.6 mph - N/A   Overcast
10:35 AM 64.4 °F - 57.2 °F 77% 29.89 in 10.0 mi WNW 5.8 mph - N/A   Overcast
10:55 AM 64.4 °F - 57.2 °F 77% 29.88 in 10.0 mi Calm Calm - N/A   Overcast
11:15 AM 66.2 °F - 55.4 °F 68% 29.87 in 10.0 mi Calm Calm - N/A   Overcast
11:35 AM 66.2 °F - 57.2 °F 73% 29.87 in 10.0 mi Calm Calm - N/A   Overcast
11:55 AM 68.0 °F - 55.4 °F 64% 29.86 in 10.0 mi WSW 4.6 mph - N/A   Overcast
12:15 PM 68.0 °F - 55.4 °F 64% 29.86 in 10.0 mi WNW 3.5 mph - N/A   Overcast
12:35 PM 68.0 °F - 55.4 °F 64% 29.86 in 10.0 mi West 4.6 mph - N/A   Overcast
12:55 PM 68.0 °F - 55.4 °F 64% 29.85 in 10.0 mi West 4.6 mph - N/A   Overcast
1:15 PM 68.0 °F - 55.4 °F 64% 29.85 in 10.0 mi NNW 8.1 mph - N/A   Overcast
1:35 PM 68.0 °F - 51.8 °F 56% 29.85 in 10.0 mi NW 6.9 mph - N/A   Overcast
1:55 PM 66.2 °F - 50.0 °F 56% 29.85 in 10.0 mi NNW 12.7 mph 19.6 mph N/A   Overcast
2:15 PM 66.2 °F - 48.2 °F 52% 29.86 in 10.0 mi NNW 9.2 mph 16.1 mph N/A   Overcast
2:35 PM 64.4 °F - 48.2 °F 56% 29.85 in 10.0 mi NNW 17.3 mph - N/A   Overcast
2:55 PM 62.6 °F - 46.4 °F 55% 29.85 in 10.0 mi NNW 19.6 mph 24.2 mph N/A   Overcast
3:15 PM 62.6 °F - 48.2 °F 59% 29.84 in 10.0 mi NNW 16.1 mph 26.5 mph N/A   Overcast
3:35 PM 62.6 °F - 50.0 °F 63% 29.85 in 10.0 mi NNW 15.0 mph 21.9 mph N/A   Overcast
3:55 PM 60.8 °F - 50.0 °F 68% 29.84 in 10.0 mi North 9.2 mph - N/A   Overcast
4:15 PM 60.8 °F - 50.0 °F 68% 29.84 in 10.0 mi North 13.8 mph 17.3 mph N/A   Overcast
4:35 PM 59.0 °F - 50.0 °F 72% 29.85 in 10.0 mi NNW 15.0 mph 19.6 mph N/A   Overcast
4:55 PM 57.2 °F - 50.0 °F 77% 29.85 in 10.0 mi NNW 11.5 mph 18.4 mph N/A   Overcast
5:15 PM 55.4 °F - 50.0 °F 82% 29.85 in 10.0 mi NNW 9.2 mph 18.4 mph N/A   Overcast
5:55 PM 55.4 °F - 46.4 °F 72% 29.86 in 10.0 mi North 12.7 mph 21.9 mph N/A   Overcast
6:15 PM 53.6 °F - 46.4 °F 77% 29.87 in 10.0 mi NNW 11.5 mph 18.4 mph N/A   Overcast
6:35 PM 53.6 °F - 46.4 °F 77% 29.88 in 10.0 mi NNW 9.2 mph 18.4 mph N/A   Overcast
6:55 PM 53.6 °F - 44.6 °F 72% 29.89 in 10.0 mi NNW 11.5 mph 21.9 mph N/A   Mostly Cloudy
7:15 PM 53.6 °F - 44.6 °F 72% 29.89 in 10.0 mi NNW 6.9 mph 10.4 mph N/A   Mostly Cloudy
7:35 PM 53.6 °F - 44.6 °F 72% 29.89 in 10.0 mi NNW 9.2 mph - N/A   Overcast
7:55 PM 51.8 °F - 44.6 °F 76% 29.89 in 10.0 mi NNW 9.2 mph - N/A   Mostly Cloudy
8:15 PM 51.8 °F - 44.6 °F 76% 29.90 in 10.0 mi NNW 6.9 mph - N/A   Mostly Cloudy
8:35 PM 51.8 °F - 44.6 °F 76% 29.91 in 10.0 mi NNW 6.9 mph - N/A   Scattered Clouds
8:55 PM 50.0 °F - 44.6 °F 82% 29.90 in 10.0 mi NW 5.8 mph - N/A   Clear
9:15 PM 50.0 °F - 44.6 °F 82% 29.90 in 10.0 mi NW 4.6 mph - N/A   Clear
9:35 PM 50.0 °F - 44.6 °F 82% 29.90 in 10.0 mi NW 4.6 mph - N/A   Clear
9:55 PM 48.2 °F - 44.6 °F 87% 29.90 in 10.0 mi NNW 4.6 mph - N/A   Scattered Clouds
10:15 PM 48.2 °F - 44.6 °F 87% 29.91 in 10.0 mi NNW 4.6 mph - N/A   Scattered Clouds
10:35 PM 46.4 °F 45.2 °F 44.6 °F 93% 29.91 in 10.0 mi NNW 3.5 mph - N/A   Scattered Clouds
10:55 PM 46.4 °F 45.2 °F 44.6 °F 93% 29.91 in 10.0 mi NNW 3.5 mph - N/A   Scattered Clouds
11:15 PM 46.4 °F 44.3 °F 44.6 °F 93% 29.91 in 10.0 mi NNW 4.6 mph - N/A   Scattered Clouds
11:35 PM 46.4 °F 45.2 °F 44.6 °F 93% 29.91 in 10.0 mi NNW 3.5 mph - N/A   Scattered Clouds
11:55 PM 46.4 °F 45.2 °F 44.6 °F 93% 29.90 in 10.0 mi NNW 3.5 mph - N/A   Clear